Sioux Falls, SD

12:19 PM CDT on March 25, 2017 (GMT -0500)
Foss

Weather History for KFSD - May, 2013

Change the Weather History Date:

Tuesday, May 7, 2013

  Actual Average Record
Temperature  
Mean Temperature 55 °F 55 °F  
Max Temperature 75 °F 67 °F 92 °F (1916)
Min Temperature 35 °F 43 °F 26 °F (1991)
Degree Days  
Heating Degree Days 10 10  
Month to date heating degree days 143 79  
Since 1 July heating degree days 7684 7486  
Cooling Degree Days 0 1  
Month to date cooling degree days 0 3  
Year to date cooling degree days 4 8  
Growing Degree Days 5 (Base 50)    
Moisture  
Dew Point 43 °F    
Average Humidity 67    
Maximum Humidity 100    
Minimum Humidity 33    
Precipitation  
Precipitation 0.02 in 0.10 in 1.87 in (1993)
Month to date precipitation 0.76 0.75  
Year to date precipitation 6.12 6.68  
Snow  
Snow 0.00 in 0.00 in T in (1938)
Month to date snowfall 1.5 0.3  
Since 1 July snowfall 43.3 44.8  
Snow Depth 0.00 in    
Sea Level Pressure  
Sea Level Pressure 30.03 in    
Wind  
Wind Speed 6 mph (SSE)    
Max Wind Speed 23 mph    
Max Gust Speed 31 mph    
Visibility 7 miles    
Events Fog    
T = Trace of Precipitation, MM = Missing Value Source: NWS Daily Summary

Daily Weather History Graph

Daily Weather History Graph

Search for Another Location

Airport or City:

Trip Planner

Search our weather history database for the weather conditions in past years. The results will help you decide how hot, cold, wet, or windy it might be!

Date:

Astronomy

May. 07, 2013 Rise Set
Actual Time 6:11 AM CDT 8:36 PM CDT
Civil Twilight 5:39 AM CDT 9:08 PM CDT
Nautical Twilight 4:59 AM CDT 9:48 PM CDT
Astronomical Twilight 4:14 AM CDT 10:34 PM CDT
Moon 4:50 AM CDT (5/7) 6:34 PM CDT (5/7)
Length of Visible Light 15h 29m
Length of Day
14h 25m
Waning Crescent, 5% of the Moon is Illuminated
May 7
Waning Crescent
May 9
New
May 17
First Quarter
May 24
Full
May 31
Last Quarter

Hourly Weather History & Observations

Time (CDT) Temp. Windchill Dew Point Humidity Pressure Visibility Wind Dir Wind Speed Gust Speed Precip Events Conditions
12:56 AM 46.0 °F - 43.0 °F 89% 30.09 in 10.0 mi Calm Calm - N/A   Clear
1:56 AM 43.0 °F - 42.1 °F 97% 30.08 in 7.0 mi Calm Calm - N/A   Clear
2:47 AM 41.0 °F - 39.2 °F 93% 30.06 in 2.0 mi Calm Calm - N/A   Clear
2:56 AM 41.0 °F - 39.9 °F 96% 30.08 in 6.0 mi Calm Calm - N/A   Clear
3:22 AM 39.2 °F - 39.2 °F 100% 30.05 in 2.5 mi Calm Calm - N/A   Clear
3:30 AM 39.2 °F - 39.2 °F 100% 30.05 in 4.0 mi Calm Calm - N/A   Clear
3:56 AM 39.0 °F - 39.0 °F 100% 30.07 in 3.0 mi Calm Calm - N/A   Clear
4:07 AM 39.2 °F - 37.4 °F 93% 30.05 in 1.8 mi Calm Calm - N/A   Clear
4:19 AM 37.4 °F - 37.4 °F 100% 30.05 in 0.5 mi Calm Calm - N/A Fog Fog
4:36 AM 39.2 °F - 37.4 °F 93% 30.04 in 1.0 mi Calm Calm - N/A   Clear
4:45 AM 39.2 °F - 37.4 °F 93% 30.04 in 4.0 mi Calm Calm - N/A   Clear
4:56 AM 37.9 °F - 37.9 °F 100% 30.06 in 4.0 mi Calm Calm - N/A   Partly Cloudy
5:56 AM 36.0 °F - 36.0 °F 100% 30.06 in 5.0 mi Calm Calm - N/A Fog Shallow Fog
6:23 AM 37.4 °F 34.9 °F 35.6 °F 93% 30.04 in 2.5 mi NNE 3.5 mph - N/A   Clear
6:56 AM 37.9 °F 35.5 °F 37.0 °F 97% 30.07 in 2.5 mi NE 3.5 mph - N/A   Clear
7:29 AM 41.0 °F - 39.2 °F 93% 30.06 in 3.0 mi Calm Calm - N/A   Clear
7:56 AM 45.0 °F - 43.0 °F 93% 30.08 in 4.0 mi Calm Calm - N/A   Clear
8:56 AM 52.0 °F - 46.9 °F 83% 30.08 in 7.0 mi ESE 4.6 mph - N/A   Clear
9:56 AM 60.1 °F - 50.0 °F 69% 30.07 in 10.0 mi SSE 8.1 mph - N/A   Clear
10:56 AM 64.9 °F - 50.0 °F 58% 30.05 in 10.0 mi South 9.2 mph - N/A   Partly Cloudy
11:56 AM 69.1 °F - 48.0 °F 47% 30.04 in 10.0 mi South 9.2 mph - N/A   Partly Cloudy
12:56 PM 71.1 °F - 46.9 °F 42% 30.02 in 10.0 mi South 13.8 mph 19.6 mph N/A   Partly Cloudy
1:56 PM 71.1 °F - 46.0 °F 41% 30.02 in 10.0 mi SSW 11.5 mph 16.1 mph N/A   Partly Cloudy
2:56 PM 73.0 °F - 42.1 °F 33% 30.00 in 10.0 mi SE 8.1 mph - N/A   Scattered Clouds
3:56 PM 72.0 °F - 43.0 °F 35% 29.98 in 10.0 mi South 10.4 mph - N/A   Mostly Cloudy
4:56 PM 73.4 °F - 42.8 °F 33% 29.96 in 10.0 mi South 15.0 mph 19.6 mph N/A   Scattered Clouds
5:56 PM 69.1 °F - 46.0 °F 44% 29.97 in 10.0 mi South 12.7 mph - N/A   Scattered Clouds
6:56 PM 68.0 °F - 46.0 °F 45% 29.96 in 10.0 mi South 9.2 mph - N/A   Mostly Cloudy
7:56 PM 61.0 °F - 48.9 °F 64% 29.97 in 10.0 mi South 13.8 mph - N/A   Mostly Cloudy
8:56 PM 60.1 °F - 48.9 °F 67% 29.96 in 10.0 mi South 9.2 mph - N/A   Mostly Cloudy
9:56 PM 60.1 °F - 48.9 °F 67% 29.97 in 10.0 mi Calm Calm - N/A   Overcast
10:56 PM 60.1 °F - 48.9 °F 67% 29.96 in 10.0 mi East 4.6 mph - N/A   Overcast
11:56 PM 57.0 °F - 50.0 °F 77% 29.95 in 10.0 mi Calm Calm - N/A   Overcast